Weather in Meynypilgyno

Russia / Chukotka Autonomous Okrug     62°32′24″N   177°03′05″E
temp.,
°C
wind,
m/s
gust,
m/s
humid.,
%
clouds,
%
prec.,
mm/h
press.,
hPa
HPBL,
m
7 march, sun
sun700:00−28n348133 0.0 99726
03:00−28n447480 0.0 99629
06:00−28n446974 0.0 99826
09:00−27nne45717 0.0 99971
12:00−23nne677446 0.0 998228
15:00−21nne81198100 0.4 995285
18:00−23nne101398100 2.8 991285
21:00−23nne111498100 2.6 986249
8 march, mon
mon800:00−23nne121599100 6.1 980215
03:00−20n91199100 6.9 976153
06:00−19nne5599100 8.3 97560
09:00−7s101688100 0.8 9781167
12:00−14sw14217398 1.3 980658
15:00−16ssw349196 0.0 983170
18:00−18sw239298 0.1 98520
21:00−18ese1294100 0.1 98720
9 march, tue
tue900:00−21sw55100100 0.2 98953
03:00−25w009898 0.1 99220
06:00−27n229799 0.1 99519
09:00−27wsw1195100 0.0 99822
12:00−25wnw118599 0.0 1000203
15:00−25w228153 0.0 100277
18:00−29nw227426 0.0 100519
21:00−31nw22710 0.0 100819
10 march, wed
wed1000:00−32nw12717 0.0 101019
03:00−32nw117267 0.0 101319
06:00−33nnw117333 0.0 101519
09:00−31nnw11720 0.0 101719
12:00−27wsw00660 0.0 1019110
15:00−26w01800 0.0 102027
18:00−30ne11790 0.0 102219
21:00−30nne22750 0.0 102319
11 march, thu
thu1100:00−31n11750 0.0 102419
03:00−30n11720 0.0 102419
06:00−30nne11670 0.0 102419
09:00−27nne126527 0.0 102421
12:00−24ne226050 0.0 1024110
15:00−21nne338195 0.0 1022141
18:00−20n459998 0.7 1020118
21:00−15nne3496100 0.9 102196